| time (UTC) | temp C | wind direction | speed KPH | gust KPH | rain 1hr cm | rain 24hr cm | rain mn cm | humidity % | barometer mb |
| 20260508041550 | 8 | 272 | 0.0 | 1.6 | 0.00 | 1.83 | 0.00 | 96 | 1002.7 |
| 20260508040056 | 8 | 272 | 0.0 | 0.0 | 0.00 | 1.83 | 0.00 | 96 | 1002.5 |
| 20260508034548 | 8 | 272 | 0.0 | 1.6 | 0.00 | 1.83 | 0.00 | 96 | 1002.2 |
| 20260508033046 | 8 | 272 | 0.0 | 0.0 | 0.00 | 1.83 | 0.00 | 96 | 1002.1 |
| 20260508031551 | 8 | 272 | 0.0 | 1.6 | 0.00 | 1.83 | 0.00 | 96 | 1002.6 |
| 20260508030046 | 8 | 272 | 0.0 | 1.6 | 0.00 | 1.83 | 0.00 | 96 | 1002.5 |
| 20260508024541 | 8 | 272 | 0.0 | 1.6 | 0.00 | 1.83 | 1.83 | 96 | 1002.4 |
| 20260508023041 | 8 | 272 | 0.0 | 1.6 | 0.00 | 1.83 | 1.83 | 96 | 1002.5 |
| 20260508021542 | 8 | 269 | 0.0 | 1.6 | 0.00 | 1.83 | 1.83 | 96 | 1002.6 |
| 20260508020040 | 8 | 267 | 0.0 | 1.6 | 0.00 | 1.83 | 1.83 | 96 | 1002.6 |
| 20260508014539 | 8 | 264 | 0.0 | 4.8 | 0.00 | 1.83 | 1.83 | 96 | 1002.7 |
| 20260508013041 | 8 | 278 | 0.0 | 3.2 | 0.00 | 1.83 | 1.83 | 96 | 1002.6 |
| 20260508011544 | 9 | 288 | 0.0 | 1.6 | 0.00 | 1.83 | 1.83 | 96 | 1002.7 |
| 20260508010040 | 9 | 254 | 0.0 | 1.6 | 0.00 | 1.83 | 1.83 | 96 | 1002.6 |
| 20260508004540 | 9 | 283 | 0.0 | 3.2 | 0.00 | 1.83 | 1.83 | 96 | 1002.6 |
| 20260508003037 | 9 | 264 | 1.6 | 6.4 | 0.00 | 1.83 | 1.83 | 96 | 1002.3 |
| 20260508001538 | 10 | 274 | 0.0 | 3.2 | 0.00 | 1.83 | 1.83 | 96 | 1002.2 |
| 20260508000048 | 10 | 264 | 0.0 | 3.2 | 0.00 | 1.83 | 1.83 | 96 | 1001.6 |
| 20260507234543 | 10 | 268 | 0.0 | 3.2 | 0.00 | 1.83 | 1.83 | 96 | 1002.0 |
| 20260507233036 | 9 | 274 | 0.0 | 6.4 | 0.00 | 1.83 | 1.83 | 96 | 1002.0 |
| 20260507231537 | 9 | 249 | 1.6 | 8.0 | 0.00 | 1.83 | 1.83 | 96 | 1001.9 |
| 20260507230030 | 7 | 268 | 0.0 | 3.2 | 0.00 | 1.83 | 1.83 | 95 | 1001.6 |
| 20260507224529 | 7 | 111 | 0.0 | 0.0 | 0.00 | 1.83 | 1.83 | 95 | 1001.6 |
| 20260507223029 | 8 | 110 | 0.0 | 4.8 | 0.00 | 1.83 | 1.83 | 95 | 1001.7 |
| 20260507221527 | 8 | 256 | 3.2 | 8.0 | 0.00 | 1.83 | 1.83 | 95 | 1001.7 |
| 20260507220026 | 8 | 246 | 3.2 | 8.0 | 0.00 | 1.83 | 1.83 | 95 | 1001.8 |
| 20260507214529 | 8 | 285 | 3.2 | 11.3 | 0.00 | 1.83 | 1.83 | 95 | 1001.9 |
| 20260507213026 | 8 | 333 | 3.2 | 14.5 | 0.00 | 1.83 | 1.83 | 95 | 1001.8 |
| 20260507211533 | 8 | 262 | 4.8 | 12.9 | 0.00 | 1.83 | 1.83 | 95 | 1001.8 |
| 20260507210024 | 8 | 275 | 8.0 | 12.9 | 0.00 | 1.83 | 1.83 | 95 | 1002.0 |
| 20260507204522 | 8 | 250 | 8.0 | 19.3 | 0.00 | 1.83 | 1.83 | 95 | 1002.0 |
| 20260507203022 | 8 | 268 | 8.0 | 16.1 | 0.00 | 1.83 | 1.83 | 95 | 1002.0 |
| 20260507201512 | 8 | 266 | 8.0 | 14.5 | 0.00 | 1.83 | 1.83 | 96 | 1002.0 |
| 20260507200004 | 8 | 254 | 6.4 | 16.1 | 0.00 | 1.83 | 1.83 | 96 | 1002.0 |
| 20260507194504 | 7 | 226 | 8.0 | 19.3 | 0.00 | 1.83 | 1.83 | 95 | 1002.1 |
| 20260507193005 | 7 | 245 | 11.3 | 19.3 | 0.03 | 1.83 | 1.83 | 95 | 1002.3 |
| 20260507191504 | 7 | 262 | 9.7 | 24.1 | 0.03 | 1.83 | 1.83 | 96 | 1002.5 |
| 20260507190005 | 7 | 240 | 9.7 | 17.7 | 0.05 | 1.83 | 1.83 | 96 | 1002.3 |
| 20260507184502 | 7 | 280 | 6.4 | 19.3 | 0.05 | 1.83 | 1.83 | 96 | 1002.0 |
| 20260507183001 | 7 | 274 | 12.9 | 22.5 | 0.05 | 1.80 | 1.80 | 96 | 1002.2 |
| 20260507181559 | 7 | 262 | 12.9 | 22.5 | 0.15 | 1.80 | 1.80 | 95 | 1002.0 |
| 20260507180106 | 7 | 188 | 4.8 | 19.3 | 0.15 | 1.78 | 1.78 | 95 | 1001.4 |
| 20260507174625 | 7 | 214 | 9.7 | 17.7 | 0.18 | 1.75 | 1.75 | 96 | 1002.1 |
| 20260507173055 | 8 | 229 | 9.7 | 17.7 | 0.23 | 1.75 | 1.75 | 96 | 1002.4 |
| 20260507171605 | 7 | 230 | 9.7 | 22.5 | 0.23 | 1.65 | 1.65 | 96 | 1004.0 |
| 20260507170051 | 7 | 241 | 8.0 | 19.3 | 0.51 | 1.65 | 1.65 | 96 | 1003.2 |
| 20260507164554 | 7 | 236 | 6.4 | 17.7 | 0.76 | 1.57 | 1.57 | 96 | 1003.1 |
| 20260507163050 | 7 | 254 | 8.0 | 12.9 | 0.71 | 1.50 | 1.50 | 95 | 1003.4 |
| 20260507161552 | 7 | 219 | 6.4 | 12.9 | 0.86 | 1.40 | 1.40 | 96 | 1003.6 |
| 20260507160110 | 7 | 314 | 3.2 | 19.3 | 0.58 | 1.09 | 1.09 | 96 | 1003.8 |
| 20260507154547 | 7 | 258 | 14.5 | 22.5 | 0.28 | 0.79 | 0.79 | 96 | 1004.9 |
| 20260507153045 | 7 | 267 | 6.4 | 14.5 | 0.23 | 0.76 | 0.76 | 96 | 1004.4 |
| 20260507151544 | 7 | 245 | 8.0 | 20.9 | 0.03 | 0.53 | 0.53 | 96 | 1004.7 |
| 20260507150044 | 7 | 223 | 12.9 | 24.1 | 0.00 | 0.51 | 0.51 | 96 | 1004.6 |
| 20260507144543 | 7 | 257 | 14.5 | 29.0 | 0.00 | 0.51 | 0.51 | 96 | 1004.6 |
| 20260507143040 | 8 | 241 | 12.9 | 24.1 | 0.00 | 0.51 | 0.51 | 96 | 1005.1 |
| 20260507141538 | 7 | 257 | 11.3 | 22.5 | 0.03 | 0.51 | 0.51 | 96 | 1005.2 |
| 20260507140138 | 7 | 224 | 11.3 | 24.1 | 0.03 | 0.51 | 0.51 | 96 | 1005.2 |
| 20260507134535 | 7 | 252 | 11.3 | 22.5 | 0.03 | 0.51 | 0.51 | 95 | 1005.8 |
| 20260507133034 | 7 | 214 | 11.3 | 25.7 | 0.05 | 0.51 | 0.51 | 95 | 1005.9 |
| 20260507131603 | 7 | 257 | 12.9 | 20.9 | 0.05 | 0.51 | 0.51 | 95 | 1006.1 |
| 20260507130030 | 8 | 226 | 11.3 | 25.7 | 0.05 | 0.51 | 0.51 | 95 | 1006.2 |
| 20260507124531 | 8 | 221 | 12.9 | 25.7 | 0.10 | 0.51 | 0.51 | 95 | 1006.7 |
| 20260507123035 | 8 | 242 | 11.3 | 27.4 | 0.08 | 0.46 | 0.46 | 95 | 1006.9 |
| 20260507121526 | 8 | 233 | 12.9 | 25.7 | 0.08 | 0.43 | 0.43 | 95 | 1007.0 |
| 20260507120031 | 7 | 243 | 12.9 | 24.1 | 0.15 | 0.43 | 0.43 | 95 | 1006.8 |
| 20260507114525 | 7 | 221 | 11.3 | 19.3 | 0.15 | 0.41 | 0.41 | 95 | 1007.0 |
| 20260507113054 | 7 | 254 | 11.3 | 24.1 | 0.13 | 0.38 | 0.38 | 95 | 1007.3 |
| 20260507111525 | 7 | 222 | 8.0 | 19.3 | 0.13 | 0.36 | 0.36 | 95 | 1007.2 |
| 20260507110020 | 7 | 271 | 9.7 | 20.9 | 0.05 | 0.28 | 0.28 | 95 | 1007.6 |
| 20260507104520 | 7 | 239 | 9.7 | 20.9 | 0.05 | 0.25 | 0.25 | 95 | 1007.5 |
| 20260507103018 | 7 | 257 | 9.7 | 20.9 | 0.08 | 0.25 | 0.25 | 95 | 1007.5 |
| 20260507101523 | 7 | 258 | 11.3 | 27.4 | 0.10 | 0.23 | 0.23 | 94 | 1007.8 |
| 20260507100029 | 7 | 248 | 12.9 | 29.0 | 0.15 | 0.23 | 0.23 | 95 | 1008.2 |
| 20260507094514 | 7 | 285 | 14.5 | 25.7 | 0.18 | 0.23 | 0.23 | 94 | 1008.2 |
| 20260507093014 | 7 | 267 | 11.3 | 25.7 | 0.15 | 0.18 | 0.18 | 94 | 1008.3 |
| 20260507091510 | 7 | 250 | 4.8 | 17.7 | 0.08 | 0.13 | 0.13 | 94 | 1008.1 |
| 20260507090008 | 6 | 259 | 8.0 | 17.7 | 0.03 | 0.05 | 0.05 | 94 | 1008.2 |
| 20260507084509 | 6 | 263 | 6.4 | 19.3 | 0.05 | 0.05 | 0.05 | 93 | 1008.4 |
| 20260507083010 | 6 | 228 | 4.8 | 16.1 | 0.05 | 0.05 | 0.05 | 93 | 1008.5 |
| 20260507081600 | 6 | 185 | 8.0 | 22.5 | 0.05 | 0.05 | 0.05 | 93 | 1009.0 |
| 20260507080057 | 6 | 212 | 8.0 | 17.7 | 0.05 | 0.05 | 0.05 | 93 | 1009.2 |
| 20260507074557 | 6 | 235 | 4.8 | 12.9 | 0.00 | 0.00 | 0.00 | 92 | 1009.3 |
| 20260507073058 | 7 | 278 | 4.8 | 12.9 | 0.00 | 0.00 | 0.00 | 91 | 1009.7 |
| 20260507071552 | 7 | 260 | 8.0 | 16.1 | 0.00 | 0.00 | 0.00 | 91 | 1009.9 |
| 20260507070105 | 7 | 167 | 6.4 | 16.1 | 0.00 | 0.00 | 0.00 | 91 | 1009.9 |
| 20260507064553 | 7 | 232 | 9.7 | 17.7 | 0.00 | 0.00 | 0.00 | 91 | 1010.0 |
| 20260507063054 | 7 | 272 | 6.4 | 19.3 | 0.00 | 0.00 | 0.00 | 91 | 1010.1 |
| 20260507061547 | 7 | 243 | 11.3 | 19.3 | 0.00 | 0.00 | 0.00 | 92 | 1010.8 |
| 20260507060047 | 7 | 265 | 9.7 | 20.9 | 0.00 | 0.00 | 0.00 | 92 | 1010.7 |
| 20260507054544 | 7 | 232 | 8.0 | 17.7 | 0.00 | 0.00 | 0.00 | 92 | 1010.9 |
| 20260507053039 | 7 | 250 | 6.4 | 16.1 | 0.00 | 0.00 | 0.00 | 92 | 1011.5 |
| 20260507051535 | 7 | 219 | 8.0 | 17.7 | 0.00 | 0.00 | 0.00 | 91 | 1012.0 |
| 20260507050057 | 7 | 265 | 9.7 | 20.9 | 0.00 | 0.00 | 0.00 | 91 | 1012.5 |
| 20260507044536 | 7 | 205 | 8.0 | 20.9 | 0.00 | 0.00 | 0.00 | 91 | 1012.7 |
| 20260507043027 | 7 | 262 | 11.3 | 22.5 | 0.00 | 0.00 | 0.00 | 91 | 1013.0 |